Find Starlink 4545

NORAD ID: 53421 Int'l Des: 2022-097 Owner: SPXS Country: US Constellation: starlink operational
LEOCIRCULAR

Live-Position

3D-Globus wird geladen...

Über Starlink 4545

Beschreibung wird geladen...

Nächste Überflüge

Passes for default location (London). Set your location on the main map for personalized predictions.

Höhenverlauf

Loading altitude history...

Zweizeiliger Elementsatz

1 53421U 22097AK 26119.75128241 -.00000005 00000-0 17756-4 0 9990
2 53421 53.2169 244.8928 0001194 86.9609 273.1520 15.08843754206332
Epoch: 29. Apr. 2026 • Age: 16 hours

Aktueller Status

Höhe 542.6 km
Geschwindigkeit 7.60 km/s
Subsatellitenpunkt 39.82°N, 90.61°W
Startdatum 10. Aug. 2022
Alter 3.7 years
Typ internet

Technische Details

Klassifizierung Payload
Masse 297.00 kg
Trockenmasse 275.00 kg
Gesamtmasse 297.00 kg
Länge 0.20 m
Durchmesser 2.80 m
Spannweite 9.00 m
Form Box + pan
Hersteller SPXS
Bus-Typ Starlink
Phasenstatus In Orbit
Besitzer/Staat SPXS/US

Most Searched